[[{"header":{"parameterUnit":"m.s-1","parameterCategory":1,"la1":30.2991,"la2":30.254,"lo1":-89.0895,"lo2":-89.0444,"dy":0.0017,"dx":0.0017,"nx":28,"ny":28,"refTime":"2023-05-23T21:00:00:Z","depth":0,"parameterNumber":2,"parameterNumberName":"U-component_of_WINDS"},"data":[0,0,0,0,0,0,0,0,0,0,0,0,0,0,0,0,0,0,0,0,0,0,0,0,0,0,0,0,0,0,0,0,0,0,0,0,0,0,0,0,0,0,0,0,0,0,0,0,0,0,0,0,0,0,0,0,0,0,-2.2396,-2.2396,0,-2.239,-2.239,-2.239,-2.231,-2.2308,-2.2306,-2.2304,-2.23,-2.2302,-2.2304,0,0,0,0,0,0,0,0,0,0,0,0,0,-2.234,-2.2341,-2.2396,-2.2396,-2.2396,-2.239,-2.239,-2.239,-2.2311,-2.2308,-2.2306,-2.2303,-2.23,-2.2302,-2.2304,0,0,0,0,0,0,0,0,0,0,0,0,0,-2.2352,-2.2342,-2.2396,-2.2356,-2.2352,-2.239,-2.239,-2.239,-2.2311,-2.2308,-2.2305,-2.2302,-2.2299,-2.2302,-2.2304,-2.2381,0,0,-2.2312,-2.2313,0,0,0,0,0,0,0,0,-2.2352,-2.2354,-2.2362,-2.2358,-2.2354,-2.2348,-2.2368,-2.2387,-2.2312,-2.2327,-2.2304,-2.2301,-2.2319,-2.2319,-2.2325,-2.2381,-2.2381,-2.2313,-2.2314,-2.2315,-2.2316,0,0,0,0,0,0,0,-2.2351,-2.2354,-2.2394,-2.2362,-2.2357,-2.2338,-2.2336,-2.2372,-2.234,-2.2325,-2.2319,-2.232,-2.2316,-2.2323,-2.2324,-2.2381,-2.2312,-2.2315,-2.2316,-2.2318,-2.2499,-2.2503,0,0,0,0,0,0,-2.2355,-2.2354,-2.2394,-2.2393,-2.2345,-2.2341,-2.234,-2.2353,-2.2339,-2.2334,-2.2322,-2.2316,-2.232,-2.2321,-2.2324,-2.2414,-2.2315,-2.2318,-2.2319,-2.2496,-2.25,-2.2504,0,0,0,0,0,0,-2.2354,-2.236,-2.2394,-2.2372,-2.2375,-2.2346,-2.2361,-2.2354,-2.2361,-2.2337,-2.2331,-2.2335,-2.2317,-2.232,-2.2367,-2.2412,-2.2319,-2.2321,-2.2492,-2.2497,-2.2502,-2.2594,0,0,0,0,0,0,-2.2353,-2.236,-2.2389,-2.2373,-2.2376,-2.2438,-2.2364,-2.2356,-2.2366,-2.2357,-2.2347,-2.2343,-2.2315,-2.2364,-2.237,-2.2414,-2.2323,-2.2488,-2.2495,-2.25,-2.2586,-2.2601,-2.2613,0,0,0,0,0,-2.2351,-2.2415,-2.2391,-2.2396,-2.2412,-2.244,-2.2442,-2.2409,-2.2369,-2.2398,-2.2383,-2.2343,-2.2406,-2.2369,-2.2376,-2.2421,-2.2485,-2.2493,-2.25,-2.258,-2.2598,-2.2613,0,0,0,0,0,0,-2.2438,-2.2413,-2.2385,-2.2446,-2.2446,-2.2427,-2.2463,-2.2429,-2.2441,-2.2432,-2.2391,-2.2389,-2.2443,-2.2436,-2.2396,-2.2495,-2.2439,-2.2448,-2.2498,-2.2514,-2.2528,-2.2529,-2.2326,0,0,0,0,0,-2.2464,-2.2489,-2.2465,-2.2521,-2.2522,-2.2493,-2.2504,-2.2478,-2.2476,-2.2476,-2.2464,-2.2465,-2.2485,-2.2499,-2.2516,-2.2584,-2.2581,-2.2619,-2.2632,-2.2643,-2.2652,-2.2688,-2.2705,-2.2528,-2.2528,-2.2527,0,0,-2.2518,-2.2507,-2.2526,-2.2538,-2.2535,-2.2562,-2.2493,-2.2525,-2.2545,-2.2481,-2.2525,-2.2516,-2.2514,-2.2573,-2.2598,-2.2569,-2.27,-2.2653,-2.2662,-2.2664,-2.2697,-2.2714,-2.2729,-2.2533,-2.2532,-2.2531,0,0,-2.2631,-2.2625,-2.2671,-2.2669,-2.2665,-2.2644,-2.2655,-2.2641,-2.2633,-2.2676,-2.2629,-2.2651,-2.2687,-2.2687,-2.2692,-2.2804,-2.2768,-2.281,-2.2881,-2.2917,-2.2931,-2.2943,-2.2984,-2.2999,-2.2818,-2.2819,-2.2819,0,-2.27,-2.2738,-2.2699,-2.2734,-2.2741,-2.2683,-2.2729,-2.2729,-2.2731,-2.2738,-2.2705,-2.2747,-2.2742,-2.28,-2.2827,-2.2832,-2.2844,-2.2812,-2.2932,-2.2944,-2.2954,-2.2993,-2.3008,-2.2824,-2.2823,-2.2823,-2.2822,0,-2.2823,-2.285,-2.2887,-2.289,-2.2901,-2.2941,-2.2909,-2.2924,-2.2897,-2.288,-2.2924,-2.2915,-2.293,-2.2941,-2.2915,-2.2995,-2.2977,-2.2939,-2.2882,-2.2977,-2.3013,-2.3027,-2.2832,-2.283,-2.2828,-2.2827,0,0,-2.2992,-2.2971,-2.2986,-2.2986,-2.2976,-2.2997,-2.3034,-2.3047,-2.3062,-2.3064,-2.3096,-2.3126,-2.309,-2.3095,-2.3068,-2.31,-2.3189,-2.3057,-2.3056,-2.3083,-2.3278,-2.3308,-2.3326,-2.3164,-2.3167,-2.3169,-2.3278,0,-2.3102,-2.3164,-2.313,-2.3197,-2.3222,-2.3167,-2.3199,-2.3197,-2.3182,-2.3201,-2.3184,-2.3207,-2.3157,-2.316,-2.3188,-2.3173,-2.3228,-2.3164,-2.3194,-2.3196,-2.3198,-2.3344,-2.3376,-2.348,-2.3292,-2.3294,-2.3296,0,-2.3239,-2.3247,-2.3317,-2.3301,-2.3311,-2.3341,-2.3349,-2.3368,-2.3364,-2.3351,-2.3357,-2.3322,-2.3358,-2.33,-2.3349,-2.3306,-2.3316,-2.331,-2.3313,-2.3316,-2.3253,-2.3352,-2.3512,-2.3528,-2.3317,-2.3315,-2.3314,0,-2.3357,-2.3385,-2.343,-2.3432,-2.3415,-2.3437,-2.3432,-2.3425,-2.3434,-2.3442,-2.3448,-2.346,-2.3467,-2.3477,-2.3447,-2.3407,-2.3501,-2.344,-2.3491,-2.3492,-2.3515,-2.3515,-2.368,-2.3519,-2.3519,-2.3519,-2.3518,0,-2.3484,-2.3529,-2.3483,-2.3511,-2.356,-2.3519,-2.3569,-2.3557,-2.3551,-2.3576,-2.3529,-2.3554,-2.3511,-2.3532,-2.3508,-2.3553,-2.3556,-2.3547,-2.3541,-2.3552,-2.3554,-2.356,-2.3552,-2.3523,-2.3522,-2.3521,-2.352,0,-2.3625,-2.3595,-2.3641,-2.3621,-2.3617,-2.3654,-2.3637,-2.3662,-2.3643,-2.3676,-2.3681,-2.3651,-2.3673,-2.3643,-2.3662,-2.3646,-2.3708,-2.3689,-2.3709,-2.3704,-2.3758,-2.3754,-2.3935,-2.3956,-2.378,-2.3782,-2.3784,0,-2.3709,-2.3743,-2.3725,-2.3738,-2.3735,-2.3757,-2.3766,-2.3727,-2.3738,-2.3736,-2.3762,-2.3779,-2.3791,-2.3828,-2.3809,-2.3823,-2.3806,-2.3868,-2.3808,-2.3819,-2.3808,-2.3807,-2.3811,-2.3881,-2.3883,-2.3885,-2.3886,0,-2.3862,-2.3845,-2.386,-2.3869,-2.3882,-2.3888,-2.389,-2.3903,-2.3862,-2.3878,-2.3899,-2.3908,-2.3926,-2.3945,-2.3953,-2.3948,-2.3911,-2.3905,-2.3918,-2.3931,-2.3942,-2.3938,-2.3744,-2.3902,-2.39,-2.3899,-2.3898,-2.3898,-2.3978,-2.4005,-2.3996,-2.4014,-2.4012,-2.4015,-2.4038,-2.402,-2.4037,-2.4049,-2.4024,-2.4051,-2.4046,-2.4054,-2.4052,-2.4073,-2.4046,-2.4065,-2.407,-2.4075,-2.4084,-2.3937,-2.4074,-2.4074,-2.4073,-2.4073,-2.4073,0,-2.4129,-2.412,-2.4137,-2.4141,-2.4155,-2.4117,-2.4118,-2.4133,-2.4157,-2.4154,-2.4167,-2.4191,-2.4208,-2.4189,-2.4203,-2.4223,-2.4207,-2.4228,-2.4227,-2.4227,-2.4107,-2.4095,-2.4241,-2.4241,-2.4241,-2.4241,-2.4241,-2.4241,-2.4209,-2.4253,-2.4235,-2.4277,-2.4268,-2.4293,-2.4297,-2.43,-2.4297,-2.4326,-2.434,-2.4327,-2.4318,-2.433,-2.4345,-2.4338,-2.4346,-2.4374,-2.4363,-2.4252,-2.4235,-2.4219,-2.4208,-2.4376,-2.4376,-2.4481,-2.4482,-2.4483]},{"header":{"parameterUnit":"m.s-1","parameterCategory":1,"la1":30.2991,"la2":30.254,"lo1":-89.0895,"lo2":-89.0444,"dy":0.0017,"dx":0.0017,"nx":28,"ny":28,"refTime":"2023-05-23T21:00:00:Z","depth":0,"parameterNumber":3,"parameterNumberName":"V-component_of_WINDS"},"data":[0,0,0,0,0,0,0,0,0,0,0,0,0,0,0,0,0,0,0,0,0,0,0,0,0,0,0,0,0,0,0,0,0,0,0,0,0,0,0,0,0,0,0,0,0,0,0,0,0,0,0,0,0,0,0,0,0,0,-4.6614,-4.6614,0,-4.6643,-4.6643,-4.6643,-4.6591,-4.6589,-4.6588,-4.6586,-4.6613,-4.6615,-4.6618,0,0,0,0,0,0,0,0,0,0,0,0,0,-4.651,-4.6512,-4.6614,-4.6614,-4.6615,-4.6643,-4.6643,-4.6644,-4.6592,-4.6589,-4.6587,-4.6585,-4.6612,-4.6615,-4.6618,0,0,0,0,0,0,0,0,0,0,0,0,0,-4.6548,-4.6513,-4.6614,-4.6592,-4.659,-4.6643,-4.6643,-4.6644,-4.6592,-4.6589,-4.6587,-4.6584,-4.6611,-4.6615,-4.6618,-4.6692,0,0,-4.6629,-4.663,0,0,0,0,0,0,0,0,-4.6546,-4.6552,-4.6595,-4.6594,-4.6592,-4.6611,-4.6616,-4.666,-4.6593,-4.6591,-4.6586,-4.6583,-4.6614,-4.6617,-4.6628,-4.6693,-4.6695,-4.6629,-4.6631,-4.6633,-4.6634,0,0,0,0,0,0,0,-4.6544,-4.6551,-4.6625,-4.6596,-4.6594,-4.658,-4.6582,-4.6624,-4.6617,-4.6591,-4.6587,-4.6592,-4.6613,-4.6625,-4.6629,-4.6695,-4.6629,-4.6632,-4.6634,-4.6636,-4.6821,-4.6823,0,0,0,0,0,0,-4.6544,-4.6549,-4.6624,-4.6626,-4.6562,-4.6584,-4.6587,-4.6607,-4.6616,-4.6615,-4.6594,-4.6589,-4.662,-4.6625,-4.6629,-4.6716,-4.6633,-4.6636,-4.6638,-4.6818,-4.6821,-4.6824,0,0,0,0,0,0,-4.6542,-4.6551,-4.6623,-4.6586,-4.6595,-4.6588,-4.6612,-4.6609,-4.6621,-4.6619,-4.6617,-4.6608,-4.6619,-4.6624,-4.6677,-4.6716,-4.6638,-4.6641,-4.6815,-4.6819,-4.6823,-4.689,0,0,0,0,0,0,-4.6539,-4.6551,-4.658,-4.6588,-4.6597,-4.6671,-4.6614,-4.6612,-4.6628,-4.6622,-4.6631,-4.663,-4.6617,-4.6672,-4.668,-4.6719,-4.6644,-4.6811,-4.6816,-4.6821,-4.6884,-4.6896,-4.6906,0,0,0,0,0,-4.6536,-4.6597,-4.6582,-4.6591,-4.6633,-4.6674,-4.6679,-4.6663,-4.6631,-4.666,-4.6658,-4.663,-4.671,-4.6678,-4.6687,-4.6727,-4.6808,-4.6815,-4.6821,-4.6879,-4.6893,-4.6905,0,0,0,0,0,0,-4.6594,-4.6598,-4.6581,-4.6647,-4.666,-4.6665,-4.67,-4.6679,-4.6701,-4.6694,-4.6673,-4.6675,-4.6732,-4.6735,-4.6698,-4.6799,-4.6754,-4.6762,-4.6795,-4.6808,-4.6819,-4.6817,-4.6647,0,0,0,0,0,-4.6614,-4.6648,-4.6649,-4.6707,-4.6715,-4.6707,-4.6724,-4.6711,-4.6723,-4.6729,-4.673,-4.6743,-4.6771,-4.679,-4.6816,-4.6884,-4.6885,-4.6916,-4.6927,-4.6936,-4.6944,-4.6979,-4.6993,-4.6845,-4.6845,-4.6845,0,0,-4.6657,-4.6663,-4.6686,-4.6719,-4.6728,-4.6762,-4.6712,-4.675,-4.6775,-4.6734,-4.6784,-4.6786,-4.6798,-4.6859,-4.6885,-4.6863,-4.6984,-4.6944,-4.6951,-4.6954,-4.6987,-4.7001,-4.7013,-4.6849,-4.6849,-4.6848,0,0,-4.6752,-4.6761,-4.6809,-4.6819,-4.6834,-4.6828,-4.684,-4.6847,-4.6847,-4.6897,-4.6866,-4.6895,-4.6944,-4.6954,-4.6965,-4.7063,-4.7038,-4.7072,-4.7129,-4.7163,-4.7175,-4.7185,-4.7219,-4.7232,-4.708,-4.708,-4.708,0,-4.6802,-4.6854,-4.6837,-4.6878,-4.6893,-4.6858,-4.6906,-4.6916,-4.6938,-4.6949,-4.6923,-4.6984,-4.699,-4.7052,-4.7076,-4.7086,-4.7098,-4.7071,-4.7175,-4.7185,-4.7194,-4.7226,-4.7239,-4.7084,-4.7083,-4.7083,-4.7083,0,-4.6915,-4.6951,-4.6989,-4.7011,-4.703,-4.7075,-4.7063,-4.7085,-4.7069,-4.7066,-4.7116,-4.7122,-4.7148,-4.7161,-4.7147,-4.7221,-4.7207,-4.7179,-4.7133,-4.7213,-4.7242,-4.7255,-4.7089,-4.7088,-4.7087,-4.7086,0,0,-4.7047,-4.706,-4.7074,-4.7083,-4.7096,-4.7123,-4.7165,-4.7191,-4.721,-4.7226,-4.726,-4.7302,-4.7275,-4.7289,-4.7275,-4.7305,-4.7381,-4.7273,-4.7273,-4.7292,-4.7462,-4.7483,-4.7498,-4.7365,-4.7367,-4.7369,-4.7461,0,-4.7141,-4.7215,-4.72,-4.7272,-4.7304,-4.7271,-4.7307,-4.7319,-4.7316,-4.7342,-4.7339,-4.7369,-4.7332,-4.734,-4.7369,-4.7366,-4.7415,-4.7359,-4.7395,-4.7397,-4.7393,-4.7513,-4.7535,-4.7622,-4.7472,-4.7474,-4.7476,0,-4.726,-4.7281,-4.7356,-4.7364,-4.7376,-4.741,-4.7432,-4.7458,-4.7469,-4.7465,-4.748,-4.746,-4.75,-4.7455,-4.7509,-4.7472,-4.7486,-4.7486,-4.7489,-4.7492,-4.7441,-4.7518,-4.7649,-4.7662,-4.7494,-4.7493,-4.7491,0,-4.7348,-4.7395,-4.7446,-4.7455,-4.7465,-4.7489,-4.7494,-4.7503,-4.7519,-4.7538,-4.7548,-4.7572,-4.7584,-4.7602,-4.7589,-4.7557,-4.7645,-4.7599,-4.7642,-4.7642,-4.7662,-4.7661,-4.7796,-4.7672,-4.7672,-4.7672,-4.7671,0,-4.7454,-4.7501,-4.7486,-4.7517,-4.7568,-4.755,-4.7601,-4.7602,-4.761,-4.764,-4.7612,-4.7641,-4.7621,-4.7648,-4.7637,-4.7684,-4.769,-4.7687,-4.7683,-4.7689,-4.7689,-4.7697,-4.7691,-4.7675,-4.7674,-4.7674,-4.7673,0,-4.7561,-4.7553,-4.7606,-4.761,-4.7613,-4.765,-4.7654,-4.7682,-4.7677,-4.7715,-4.7723,-4.7715,-4.7745,-4.7733,-4.7764,-4.7757,-4.7816,-4.7805,-4.7813,-4.781,-4.7853,-4.7849,-4.7998,-4.8016,-4.7881,-4.7882,-4.7884,0,-4.7629,-4.7664,-4.7673,-4.7691,-4.7698,-4.7728,-4.7745,-4.7728,-4.7746,-4.7762,-4.7788,-4.7815,-4.7836,-4.7885,-4.7881,-4.7905,-4.7894,-4.7944,-4.7897,-4.7901,-4.7893,-4.7891,-4.7894,-4.7954,-4.7955,-4.7956,-4.7957,0,-4.775,-4.7744,-4.7769,-4.7793,-4.7814,-4.7831,-4.7846,-4.7863,-4.7847,-4.7868,-4.7899,-4.7915,-4.7947,-4.7974,-4.7995,-4.7998,-4.7975,-4.7972,-4.7984,-4.7989,-4.7992,-4.799,-4.7838,-4.7969,-4.7968,-4.7967,-4.7966,-4.7966,-4.7839,-4.7868,-4.7879,-4.7908,-4.7917,-4.7932,-4.7959,-4.7957,-4.7982,-4.8008,-4.7996,-4.8031,-4.804,-4.8066,-4.8073,-4.8099,-4.8079,-4.8095,-4.8099,-4.8103,-4.8109,-4.7988,-4.8103,-4.8102,-4.8102,-4.8102,-4.8101,0,-4.7958,-4.7963,-4.7989,-4.8012,-4.8034,-4.8011,-4.8026,-4.8046,-4.8077,-4.8089,-4.811,-4.8144,-4.817,-4.8168,-4.8192,-4.8213,-4.8203,-4.822,-4.8218,-4.8219,-4.8126,-4.8113,-4.8228,-4.8228,-4.8228,-4.8228,-4.8228,-4.8228,-4.8022,-4.8071,-4.8066,-4.8118,-4.8122,-4.8157,-4.8168,-4.818,-4.8189,-4.8229,-4.8251,-4.825,-4.8255,-4.8279,-4.8301,-4.83,-4.831,-4.8331,-4.8325,-4.8238,-4.8226,-4.8214,-4.8202,-4.8333,-4.8333,-4.8416,-4.8417,-4.8418]}]]